TimeCST,TemperatureF,Dew PointF,Humidity,Sea Level PressureIn,VisibilityMPH,Wind Direction,Wind SpeedMPH,Gust SpeedMPH,PrecipitationIn,Events,Conditions,WindDirDegrees,DateUTC
12:51 AM,50.0,39.0,66,30.12,10.0,WNW,9.2,-,N/A,,Mostly Cloudy,300,2012-11-23 06:51:00
1:51 AM,48.9,36.0,61,30.14,10.0,NW,15.0,24.2,N/A,,Scattered Clouds,310,2012-11-23 07:51:00
2:51 AM,46.0,36.0,68,30.16,10.0,WNW,15.0,-,N/A,,Partly Cloudy,290,2012-11-23 08:51:00
3:51 AM,43.0,34.0,71,30.17,10.0,West,9.2,-,N/A,,Clear,280,2012-11-23 09:51:00
4:51 AM,43.0,33.1,68,30.17,10.0,West,11.5,-,N/A,,Clear,270,2012-11-23 10:51:00
5:51 AM,42.1,32.0,67,30.18,10.0,West,10.4,-,N/A,,Clear,260,2012-11-23 11:51:00
6:51 AM,43.0,32.0,65,30.19,10.0,West,11.5,-,N/A,,Mostly Cloudy,270,2012-11-23 12:51:00
7:51 AM,43.0,32.0,65,30.23,10.0,WNW,11.5,20.7,N/A,,Mostly Cloudy,300,2012-11-23 13:51:00
8:51 AM,43.0,28.0,56,30.25,10.0,WNW,19.6,32.2,N/A,,Mostly Cloudy,300,2012-11-23 14:51:00
9:51 AM,43.0,26.1,51,30.27,10.0,WNW,24.2,33.4,N/A,,Partly Cloudy,300,2012-11-23 15:51:00
10:51 AM,43.0,23.0,45,30.29,10.0,NW,23.0,29.9,N/A,,Partly Cloudy,310,2012-11-23 16:51:00
11:51 AM,44.1,21.9,42,30.28,10.0,WNW,20.7,29.9,N/A,,Partly Cloudy,300,2012-11-23 17:51:00
12:51 PM,43.0,19.0,38,30.28,10.0,WNW,19.6,29.9,N/A,,Clear,300,2012-11-23 18:51:00
1:51 PM,43.0,19.0,38,30.28,10.0,WNW,16.1,29.9,N/A,,Clear,300,2012-11-23 19:51:00
2:51 PM,42.1,19.0,40,30.30,10.0,WNW,20.7,29.9,N/A,,Clear,300,2012-11-23 20:51:00
3:51 PM,41.0,19.4,42,30.30,10.0,West,19.6,25.3,N/A,,Clear,280,2012-11-23 21:51:00
4:51 PM,37.9,19.0,47,30.33,10.0,WNW,11.5,21.9,N/A,,Clear,300,2012-11-23 22:51:00
5:51 PM,37.0,19.0,48,30.35,10.0,NW,16.1,20.7,N/A,,Clear,310,2012-11-23 23:51:00
6:51 PM,35.1,19.9,54,30.37,10.0,NW,9.2,-,N/A,,Clear,310,2012-11-24 00:51:00
7:51 PM,34.0,18.0,52,30.37,10.0,NW,13.8,-,N/A,,Clear,310,2012-11-24 01:51:00
8:51 PM,32.0,18.0,56,30.38,10.0,NW,13.8,25.3,N/A,,Clear,320,2012-11-24 02:51:00
9:51 PM,30.0,17.1,59,30.38,10.0,WNW,8.1,-,N/A,,Clear,290,2012-11-24 03:51:00
10:51 PM,30.0,17.1,59,30.38,10.0,WNW,8.1,-,N/A,,Clear,290,2012-11-24 04:51:00
11:51 PM,28.9,17.1,61,30.37,10.0,WNW,6.9,-,N/A,,Clear,300,2012-11-24 05:51:00